Theta_e
311 312 312 313 311 311 310 310 313 316 318 318 314 313 312 311 311 311 310 308 308 316 314 313 313 314 312 312 312 310 311 312 310 311 310 308 310 308 308 308 307 307 307 309 310
307 307 308 309 311 311 310 309 312 314 316 317 313 312 311 311 310 310 305 308 314 317 313 312 312 314 312 313 311 313 312 311 309 309 310 309 309 309 310 310 310 309 309 310 311
306 307 307 307 308 310 309 308 311 312 313 315 313 312 311 309 307 306 313 313 316 318 314 312 313 313 314 314 312 312 314 311 311 310 310 311 310 309 310 311 310 310 310 310 311
307 306 305 306 306 307 308 307 308 315 314 315 313 311 309 307 307 311 313 316 317 317 315 313 312 315 315 314 312 312 312 312 311 310 310 311 310 310 310 311 310 310 310 310 311
307 308 305 305 305 306 308 308 307 314 314 314 313 311 308 308 305 315 318 318 316 315 314 313 313 313 315 313 313 314 312 312 311 311 311 311 312 312 312 312 311 310 309 309 310
306 307 307 306 306 305 306 309 309 312 313 313 311 308 308 303 307 314 316 315 315 315 314 313 313 313 314 315 316 314 314 314 313 313 312 314 314 313 313 312 311 311 311 310 311
305 306 307 306 305 305 305 309 306 314 311 311 310 307 306 304 309 313 314 314 313 314 313 313 313 314 313 313 312 313 316 315 314 314 314 314 315 315 313 312 312 312 312 312 312
305 305 306 305 305 305 306 308 306 311 311 313 310 307 305 307 308 313 312 312 311 312 312 313 313 314 314 313 314 316 317 317 313 314 314 314 318 315 313 314 314 314 314 313 313
305 305 305 304 305 306 305 309 309 309 311 309 308 306 308 308 308 311 310 307 309 311 312 314 313 314 314 315 315 315 319 317 315 315 316 317 318 315 313 313 314 315 316 315 314
305 305 305 303 305 305 308 309 310 310 309 309 308 305 306 306 307 307 308 309 312 312 313 314 314 316 316 316 319 318 320 318 316 313 314 315 317 315 313 314 314 314 317 317 316
305 304 304 304 304 306 308 308 306 305 307 306 306 307 307 307 307 308 308 310 310 311 313 313 315 314 313 314 314 317 316 318 314 312 314 316 314 315 314 313 316 318 316 316 318
305 305 304 304 305 305 306 304 305 305 307 307 307 307 307 306 308 309 309 310 311 312 312 314 313 311 312 313 313 313 315 313 312 313 311 311 313 313 313 313 316 316 315 315 318
305 304 303 304 306 306 306 306 306 306 308 309 308 307 306 306 307 310 309 309 311 312 311 312 310 310 312 309 308 309 310 310 312 310 309 311 314 313 311 313 313 314 313 317 319
302 303 303 303 305 305 305 306 306 306 303 307 308 308 308 307 308 308 309 310 311 312 310 308 308 310 309 309 307 310 307 310 311 310 311 311 316 313 312 313 312 313 315 318 318
302 303 304 305 304 304 305 306 306 303 303 305 308 307 307 308 308 307 309 310 312 310 307 307 307 308 309 308 308 308 309 309 311 312 312 312 320 311 313 314 313 314 315 317 317
304 303 304 304 305 305 306 306 304 299 303 306 307 308 307 307 307 307 307 305 307 306 303 306 305 306 307 306 307 309 310 308 308 312 311 312 313 310 315 314 313 312 313 316 316
305 305 304 304 303 305 306 303 301 301 304 306 308 308 308 307 308 307 306 305 307 302 301 303 305 303 305 307 307 309 308 304 308 317 310 311 313 316 314 312 311 312 312 314 315
306 305 306 305 305 305 305 301 303 307 308 306 309 308 308 308 308 306 306 304 305 305 300 302 302 305 304 307 309 310 311 302 315 314 309 309 314 312 312 310 309 309 310 311 312
305 306 305 304 306 306 301 305 304 307 308 309 307 308 307 307 308 305 304 304 305 306 308 303 305 304 304 305 306 308 310 311 311 301 306 311 312 309 310 310 309 308 308 309 309
304 304 305 304 306 304 302 308 308 307 307 307 307 306 308 305 305 304 302 304 303 304 303 303 304 303 304 303 303 305 305 305 303 302 310 310 313 314 314 311 309 308 307 307 307
304 303 305 305 304 301 301 307 308 306 306 306 306 306 305 305 305 304 303 302 301 302 302 303 301 301 303 302 303 303 303 305 306 311 302 303 311 313 311 309 307 307 306 306 306
302 303 306 304 303 297 301 306 307 306 304 305 304 304 304 303 303 305 303 302 300 301 302 301 300 299 304 304 301 301 302 302 302 306 307 298 305 311 307 307 305 305 305 305 305
299 300 305 305 302 301 303 305 306 304 304 303 304 303 300 302 303 304 303 302 300 302 304 302 295 291 297 298 299 300 301 302 296 296 307 301 308 309 305 306 305 304 303 303 304
298 301 299 298 298 303 304 304 304 302 304 302 300 300 301 301 300 302 301 302 299 301 304 300 294 293 295 296 298 301 302 300 298 293 296 302 304 305 306 306 305 303 302 303 303
295 300 299 299 302 301 302 303 304 304 300 300 302 299 299 300 298 299 299 298 298 299 298 295 293 297 298 298 301 302 302 301 296 300 296 302 304 306 306 305 304 302 303 304 304
298 299 296 299 300 303 302 305 302 302 301 301 301 300 297 299 298 298 298 298 299 297 297 295 294 290 292 301 302 303 303 301 301 303 303 303 305 302 305 304 303 303 303 303 303
299 300 299 300 300 302 303 305 303 300 300 299 298 299 298 298 297 296 296 295 297 299 296 296 292 292 295 299 294 292 299 303 304 303 305 305 303 305 306 305 304 304 303 302 302
Wind_Speed
24 24 22 17 11 10 12 12 11 6 5 11 7 5 4 4 5 5 4 4 6 10 10 8 5 6 6 3 3 2 2 3 4 3 3 3 3 3 3 5 5 6 9 15 29
30 27 25 21 18 9 9 11 12 9 7 11 7 6 5 5 4 6 7 7 8 14 9 6 3 4 3 3 2 1 3 4 5 3 4 4 4 8 3 10 13 14 15 24 30
28 25 21 19 19 12 9 11 8 12 10 9 10 7 5 3 1 3 3 12 11 13 8 4 6 3 2 2 2 3 4 3 5 8 5 7 10 5 6 12 17 12 16 11 14
23 22 22 20 15 13 9 13 12 3 13 12 11 8 5 2 3 5 11 13 12 15 9 5 3 2 2 3 3 2 9 10 6 5 2 8 7 10 12 24 20 15 14 14 10
26 20 15 16 10 10 9 11 10 4 12 13 12 7 5 3 1 8 9 9 12 13 9 4 3 1 2 3 3 6 8 8 12 10 7 9 18 15 22 26 17 17 16 19 18
27 23 15 12 6 8 8 9 9 3 14 14 10 7 2 4 2 8 10 10 10 10 7 5 4 4 4 4 6 3 6 12 8 15 9 11 19 0 19 15 13 13 17 18 19
27 20 15 8 3 6 5 8 8 19 16 13 7 5 3 4 3 10 8 8 7 10 4 10 6 2 0 5 3 5 7 11 12 9 5 4 9 10 19 13 13 16 16 17 16
24 21 9 5 6 6 4 5 2 14 14 12 6 2 3 3 3 10 7 4 4 8 3 2 5 1 2 4 5 4 1 5 6 1 4 4 11 10 7 14 17 18 18 16 16
25 19 12 10 11 6 5 6 14 16 12 10 4 1 3 4 3 10 7 1 4 3 4 3 3 2 2 4 6 1 4 5 7 3 2 4 10 11 9 14 17 18 19 18 16
21 17 12 13 12 12 12 19 17 15 11 8 7 4 6 3 2 1 8 4 3 3 2 1 1 2 2 2 3 2 4 5 7 5 9 11 17 8 10 14 18 20 21 17 16
21 15 11 12 10 12 21 16 4 7 10 5 0 3 2 7 3 3 4 4 3 4 1 1 1 6 8 8 15 12 11 9 10 14 6 8 8 7 10 13 17 18 19 18 14
17 16 13 13 11 10 7 4 1 2 6 2 3 2 3 2 4 3 3 3 2 2 2 3 7 11 6 11 10 11 12 10 8 6 4 8 7 3 8 15 16 17 19 20 18
18 13 11 11 15 19 16 8 3 1 5 4 2 2 3 4 2 2 2 1 3 2 4 5 8 7 5 8 5 4 5 6 6 7 3 6 3 4 18 12 20 24 25 24 22
18 12 6 6 7 6 5 9 4 3 4 9 6 4 4 3 4 1 1 1 2 3 3 5 5 3 4 4 4 5 5 5 4 5 3 3 4 4 20 21 24 25 27 24 29
18 14 15 11 4 4 6 5 2 2 6 7 6 4 4 3 3 5 0 2 3 4 3 6 4 4 3 4 3 7 2 6 2 3 2 5 3 6 17 23 27 26 27 27 24
21 15 6 9 11 8 6 4 2 6 1 5 3 5 4 3 2 4 3 5 1 3 2 6 4 2 3 8 3 2 4 4 3 1 3 6 1 4 13 18 21 22 24 26 26
19 19 23 16 7 10 6 3 5 7 3 4 2 3 2 3 3 4 3 5 4 5 5 6 5 6 1 5 2 7 3 3 4 1 3 6 3 2 13 17 17 19 20 20 20
17 15 17 23 19 12 6 5 10 3 3 4 2 3 2 3 2 5 3 6 3 3 1 3 6 4 5 1 3 3 2 4 2 3 3 6 4 3 11 13 16 17 18 20 23
7 7 8 25 8 7 4 6 4 2 2 3 3 2 4 3 2 4 4 3 2 2 1 2 4 4 1 2 2 4 4 3 3 2 4 3 3 4 13 15 17 19 20 20 20
4 3 6 23 6 6 5 5 6 5 6 3 2 1 2 5 3 4 4 1 4 1 2 2 4 1 4 5 4 4 2 2 3 3 2 3 2 5 12 16 17 18 19 18 19
5 3 12 13 6 6 4 4 3 3 3 4 4 5 3 3 2 2 2 2 3 6 2 1 3 6 3 5 3 5 4 4 3 1 4 1 3 0 7 11 11 13 15 16 16
3 4 19 7 5 3 3 2 5 4 4 3 2 3 4 6 5 2 2 3 4 2 4 3 2 2 3 2 2 1 2 2 3 1 3 3 4 2 5 5 6 8 11 13 13
2 2 7 9 4 2 4 3 3 7 4 5 5 3 3 3 2 1 3 1 3 3 3 2 3 3 9 4 3 4 3 2 3 2 1 3 4 2 5 4 6 7 9 9 12
3 3 4 5 3 3 1 3 4 5 2 4 4 2 3 3 2 2 3 2 4 3 5 3 2 5 5 6 3 5 4 3 3 3 3 4 4 6 7 6 7 8 8 8 7
3 3 4 3 4 4 2 2 4 6 3 3 2 4 2 3 5 4 1 4 2 7 3 3 3 3 5 6 3 4 7 4 2 4 4 2 4 5 6 6 4 5 7 8 9
3 4 0 3 0 4 6 1 1 2 1 5 3 4 5 1 1 4 4 2 0 5 3 4 1 2 3 4 4 5 7 6 4 3 5 4 5 6 2 5 6 5 5 6 8
1 1 3 1 3 4 5 3 1 1 1 2 2 3 2 3 3 4 2 0 3 3 2 2 3 3 4 2 3 5 6 5 3 4 4 3 5 4 4 4 5 6 6 6 5
Wind_Direction
320 324 318 295 294 315 326 321 318 313 267 181 186 177 180 211 234 265 241 223 169 152 144 122 102 102 71 60 46 100 29 256 261 177 227 209 260 230 227 246 259 238 246 260 279
335 321 322 321 316 303 334 334 314 301 278 188 160 168 187 222 249 253 260 186 182 161 153 127 128 113 69 63 7 141 243 241 196 201 247 255 242 284 255 273 260 272 265 265 267
340 326 319 316 324 324 346 348 322 278 235 172 155 155 201 224 131 275 301 175 168 174 173 130 134 104 82 98 212 176 239 234 243 239 222 277 284 228 262 273 253 256 266 253 254
339 343 338 342 322 325 344 356 341 59 173 151 146 161 188 176 113 24 128 158 174 196 166 126 88 148 187 213 188 262 242 244 266 227 245 271 291 273 232 259 264 265 264 276 253
338 327 325 337 316 341 337 356 348 35 139 143 148 161 158 68 277 116 145 158 159 173 167 144 111 155 251 208 199 224 264 243 245 280 261 273 266 263 282 266 277 267 261 257 257
343 335 322 319 335 1 319 343 338 267 145 140 146 148 120 80 357 140 164 162 172 168 176 148 189 193 294 271 234 287 266 289 304 291 276 273 276 211 275 281 278 263 260 252 251
340 340 330 352 50 23 334 336 9 116 125 130 138 143 68 107 57 159 167 177 191 187 163 210 229 143 78 298 296 273 304 317 287 270 268 259 281 216 254 291 277 282 271 260 250
357 343 356 57 94 72 359 329 70 109 109 119 139 118 74 46 73 163 173 200 225 211 248 331 240 289 213 301 307 290 186 314 281 307 268 136 290 288 353 334 312 310 298 275 262
3 28 76 82 94 75 10 87 120 103 113 120 104 83 74 18 101 189 203 207 180 217 228 67 67 255 293 303 294 292 276 245 302 248 218 229 292 291 352 337 324 323 308 279 263
18 32 81 67 98 57 99 110 106 98 98 97 76 55 7 342 2 133 197 175 110 98 32 81 146 329 233 263 275 285 280 282 310 302 323 293 265 316 327 338 325 326 321 305 272
26 42 76 70 83 93 114 110 40 15 38 75 299 83 354 339 62 63 126 118 86 61 316 296 310 258 248 274 277 282 274 282 266 270 283 266 293 295 329 334 320 329 322 316 297
38 44 57 62 50 107 72 64 53 149 60 30 334 336 282 326 55 34 137 87 71 248 256 287 262 256 258 271 280 282 277 273 271 277 290 294 277 342 335 329 325 331 320 320 313
34 48 64 73 77 78 76 48 19 74 79 27 58 21 318 21 30 359 106 114 210 265 246 225 254 306 294 273 276 283 261 276 284 322 282 320 308 334 337 336 346 341 338 332 327
39 63 59 47 73 36 43 17 48 15 84 345 347 1 4 341 35 348 197 130 353 273 297 240 284 282 282 278 280 276 241 265 316 15 290 17 288 333 343 344 356 344 342 337 334
26 50 61 71 82 54 329 3 16 32 65 301 327 302 323 58 289 347 328 61 240 273 70 262 298 322 273 240 213 244 291 283 212 245 314 328 273 272 349 351 347 344 337 346 343
19 17 26 68 51 17 359 8 359 43 346 329 327 355 14 6 347 325 53 25 306 323 326 258 283 271 256 305 188 290 288 40 38 16 15 329 354 326 358 339 330 337 341 345 351
22 30 33 25 339 349 351 24 44 78 328 314 334 10 327 321 14 34 41 18 43 17 354 328 284 304 294 337 4 10 52 25 25 180 201 337 25 319 342 340 338 339 340 347 353
26 42 35 10 350 343 336 43 66 229 219 287 307 322 355 351 34 16 51 16 19 33 10 28 336 352 330 337 301 304 51 135 138 140 254 345 5 307 355 336 347 353 354 4 5
350 334 11 1 3 343 35 44 147 192 302 330 342 23 340 355 28 77 22 355 283 18 335 5 278 315 271 320 30 335 44 316 88 61 61 312 346 350 343 349 354 358 7 5 3
334 329 331 355 41 89 75 89 21 354 336 347 331 72 343 343 31 33 26 20 324 352 199 298 312 109 300 25 2 56 324 45 8 72 35 327 296 355 342 342 349 2 4 6 7
341 43 360 354 72 50 78 51 356 354 26 352 336 326 358 356 32 31 347 300 5 313 333 323 110 300 52 34 319 343 15 23 52 351 149 194 288 200 334 326 343 354 360 3 8
33 27 349 13 50 38 32 341 321 328 5 354 55 20 354 353 2 346 323 212 357 297 346 333 145 305 261 238 239 291 48 119 112 240 64 145 280 290 295 329 349 345 359 360 6
69 249 348 6 86 7 295 319 38 17 5 7 5 35 59 43 347 13 315 303 19 40 1 347 10 10 342 10 30 42 334 86 118 38 120 118 264 241 334 349 359 358 351 358 2
85 19 344 36 21 105 95 6 345 347 34 354 347 50 9 7 76 292 331 301 355 357 42 89 90 157 179 211 214 307 321 29 93 87 190 217 280 306 319 342 351 347 349 350 358
28 166 166 339 355 54 93 316 328 1 15 28 81 68 287 312 327 343 310 324 346 356 36 92 161 192 243 239 227 253 284 317 87 211 141 242 220 254 280 302 323 320 333 353 1
125 139 101 149 35 15 337 270 118 289 320 336 29 342 24 115 191 301 338 8 269 330 46 351 285 77 291 218 240 273 268 264 246 213 258 245 268 205 212 301 320 327 346 353 347
25 53 100 246 149 136 192 184 262 310 325 350 309 315 307 223 210 231 199 351 312 298 327 62 106 43 273 357 345 347 220 195 206 207 194 222 231 178 200 215 275 310 341 340 346